Location: Kolin
(50.0330°N, 15.2000°E)
Time: 03:14:02
(UTC+01:00)

ISS - Pass Details

Date: 02 October 2020
Orbit: 417 x 420 km, 51.6° (Epoch: 25 October)

Event Time Altitude Azimuth Distance (km) Brightness Sun altitude
Rises 20:18:51 0° 287° (WNW) 2,370 1.8 -17.4°
Reaches altitude 10° 20:21:01 10° 280° (W) 1,504 0.3 -17.8°
Maximum altitude 20:24:13 40° 209° (SSW) 630 -2.8 -18.3°
Enters shadow 20:24:57 35° 176° (S) 703 -2.9 -18.4°
